Showing default

NIMBUS 4, 4362

Orbit data source: Space-Track

NIMBUS 4, 4362 is a payload satellite owned by GSFC (US) in SSO that was launched on Wed, 08 Apr 1970 UTC via a THORAD SLV-2G AGENA D launch vehicle from the Air Force Western Test Range (AFWTR). Payload-class satellites include a variety of spacecraft equipped with specific instruments for various scientific and technological missions. These include communications satellites like Starlink; space stations such as the ISS; scientific satellites like the Hubble; Earth observation satellites from companies like Planet Labs, Umbra, and HawkEye 360; GPS; miniature CubeSats for education and research; and military/defense satellites.

Loading next visibility...
Identifier
4362, 1970-025A
Orbit
SSO
Country
Flag of USUS
Related business
Manufacturer
GE/MSVD
Mission
Non-operational spacecraft
Bus & Motor
NIMBUS, Unknown motor
Mass
619 kg wet, 619 kg dry
Launch date (UTC)
1970-04-08 (56 years ago)
Launch vehicle
THORAD SLV-2G AGENA D
Launch site
Air Force Western Test Range (AFWTR)
Object type
Payload
Rocket body
Debris
Shape & HBR
Unknown
Radar Cross Section
Large (>1 m²)

Expand to show TLE details & history
Last TLE update: 14 hours ago

TLE from 14 hours ago
0 NIMBUS 4
1 04362U 70025A   25340.76059419  .00000016  00000-0  10390-3 0  9997
2 04362  99.9581 258.7224 0008093 104.7900 310.6656 13.44742914730982
Epoch: 2025-12-06T18:15Z
TLE epoch observation values (Epoch: 2025-12-06T18:15:15.338Z)
Latitude
54.25161°
Longitude
-104.91826°
Altitude
1,096.555 km
Speed
7.311 km/s
True Right ascension
16h 18m 43s
True Declination
54° 05' 45"
Sunlit
Object was in daylight at epoch
Visualization orbit readout
Latitude
Unknown
Longitude
Unknown
Altitude
Unknown
Speed
Unknown
Apparent Right ascension
Unknown
Apparent Declination
Unknown
Sunlit
N/A
Visualization observer readout
Local Sidereal Time
06:18:16
Azimuth
Unknown
Elevation
Unknown
Doppler factor
Unknown
Orbital elements
Apogee altitude
1,095.028 km
Perigee altitude
1,082.942 km
Semi-major axis
7,467.122 km
Eccentricity
0.00081
Inclination
99.9581°
RAAN
258.7224°
Arg. of periapsis
104.79°
True anomaly
310.59521°
Mean anomaly
310.6656°
Eccentric anomaly
310.63041°
Mean motion
3.36367 °/min
Orbital period
107.03 mins
BSTAR
0.0001039
Loading maneuver chart data...
Computing Atmospheric mass density...

Documentation

Showing up to 5 results
|